Regional Weather Roundup
Issued by NWS

Home | Current Version | Previous Version | Text Only | Print | Product List | Glossary Off
Versions: 1 2 3 4 5 6 7 8 9 10 11 12 13 14 15 16 17 18 19 20 21 22 23 24 25 26 27 28 29 30 31 32 33 34 35 36 37 38 39 40 41 42 43 44 45 46 47 48 49 50

727
ASUS43 KFSD 281310
RWRSD

WEATHER ROUNDUP FOR SOUTH DAKOTA
NATIONAL WEATHER SERVICE SIOUX FALLS SD
800 AM CDT FRI JUL 28 2017

NOTE: "FAIR" INDICATES FEW OR NO CLOUDS BELOW 12,000 FEET WITH NO
SIGNIFICANT WEATHER AND/OR OBSTRUCTIONS TO VISIBILITY.


SDZ001>005-009-010-012>017-281400-
NORTHWEST AND NORTH CENTRAL SOUTH DAKOTA

CITY           SKY/WX    TMP DP  RH WIND       PRES   REMARKS
BUFFALO          N/A     63  58  83 S13       29.98S
FAITH            N/A     65  61  87 SE13      30.05R
MOBRIDGE       CLOUDY    72  63  73 SE9       30.03S
$$

SDZ012>016-024>037-041>051-057-063-072>074-281400-
SOUTHWEST AND SOUTH CENTRAL SOUTH DAKOTA

CITY           SKY/WX    TMP DP  RH WIND       PRES   REMARKS
RAPID CTY ARPT CLOUDY    62  56  80 SW5       30.06R
PIERRE         CLOUDY    70  61  73 SE8       30.03S
CUSTER         MOSUNNY   60  54  80 W5        30.18R
ELLSWORTH AFB  SUNNY     63  59  85 SW6       30.05S
PHILIP         MOSUNNY   68  63  84 S9        30.03R
PINE RIDGE     MOSUNNY   62  61  96 CALM      30.07R
SPEARFISH      FAIR      63  57  82 CALM      30.10R
WINNER         CLOUDY    68  64  87 SE7       30.08R
$$

SDZ004>011-016>023-039-040-281400-
NORTHEAST SOUTH DAKOTA

CITY           SKY/WX    TMP DP  RH WIND       PRES   REMARKS
ABERDEEN       CLOUDY    68  64  87 SE5       30.08S
WATERTOWN      CLOUDY    67  62  84 CALM      30.10R
BROOKINGS      CLOUDY    68  63  84 CALM      30.11R
SISSETON         N/A     68  63  84 CALM      30.08S
$$

SDZ017-020-022-023-036>040-048>070-281400-
SOUTHEAST SOUTH DAKOTA

CITY           SKY/WX    TMP DP  RH WIND       PRES   REMARKS
SIOUX FALLS    CLOUDY    66  63  90 CALM      30.10S
HURON          CLOUDY    67  63  87 S6        30.08S
CHAMBERLAIN    CLOUDY    69  65  86 S8        30.07S
MITCHELL       MOSUNNY   68  65  90 SE5       30.08S
YANKTON        PTSUNNY   66  63  90 CALM      30.09
$$

ABBREVIATIONS USED IN REMARKS
   TC - TEMPERATURE IN CELSIUS
  WCI - WIND CHILL INDEX
   HX - HEAT INDEX
  VSB - VISIBILITY





USA.gov is the U.S. government's official web portal to all federal, state and local government web resources and services.